This is the latest recevied weather packets stored in our database for station/object DL7HMX-13. If no packets are shown the sender has not sent any weather packets the latest 10 day(s).
| Time | Temp. | Humidity | Pressure | Rain* | Wind** | Luminosity | Snow |
|---|---|---|---|---|---|---|---|
| 1777717822 | 23.33° C | 31% | 1022.4 hPa | 0 mm | - | 647 W/m² | - |
| 1777717225 | 22.78° C | 30% | 1022.5 hPa | 0 mm | - | 645 W/m² | - |
| 1777716628 | 22.78° C | 31% | 1022.7 hPa | 0 mm | - | 640 W/m² | - |
| 1777716032 | 22.22° C | 31% | 1022.8 hPa | 0 mm | - | 637 W/m² | - |
| 1777715417 | 21.67° C | 30% | 1022.9 hPa | 0 mm | - | 628 W/m² | - |
| 1777714820 | 22.22° C | 32% | 1023 hPa | 0 mm | - | 620 W/m² | - |
| 1777714222 | 22.22° C | 31% | 1023.1 hPa | 0 mm | - | 611 W/m² | - |
| 1777713624 | 21.67° C | 33% | 1023.3 hPa | 0 mm | - | 602 W/m² | - |
| 1777713028 | 22.22° C | 35% | 1023.3 hPa | 0 mm | - | 590 W/m² | - |
| 1777712430 | 21.67° C | 35% | 1023.3 hPa | 0 mm | - | 578 W/m² | - |
| 1777711817 | 21.67° C | 38% | 1023.5 hPa | 0 mm | - | 566 W/m² | - |
| 1777711218 | 21.11° C | 39% | 1023.5 hPa | 0 mm | - | 550 W/m² | - |
| 1777710620 | 20.56° C | 40% | 1023.5 hPa | 0 mm | - | 532 W/m² | - |
| 1777710023 | 20° C | 42% | 1023.5 hPa | 0 mm | - | 514 W/m² | - |
| 1777709426 | 19.44° C | 44% | 1023.6 hPa | 0 mm | - | 493 W/m² | - |
| 1777708827 | 18.89° C | 52% | 1023.7 hPa | 0 mm | - | 468 W/m² | - |
| 1777708230 | 17.22° C | 57% | 1023.9 hPa | 0 mm | - | 446 W/m² | - |
| 1777707617 | 16.11° C | 62% | 1024 hPa | 0 mm | - | 394 W/m² | - |
| 1777707018 | 15.56° C | 65% | 1024 hPa | 0 mm | - | 373 W/m² | - |
| 1777706421 | 15.56° C | 66% | 1024 hPa | 0 mm | - | 376 W/m² | - |
| 1777705824 | 15° C | 66% | 1024.1 hPa | 0 mm | - | 352 W/m² | - |
| 1777705227 | 13.33° C | 70% | 1024.2 hPa | 0 mm | - | 325 W/m² | - |
| 1777704629 | 12.22° C | 74% | 1024.2 hPa | 0 mm | - | 304 W/m² | - |
| 1777704032 | 12.22° C | 72% | 1024.4 hPa | 0 mm | - | 272 W/m² | - |
| 1777703420 | 11.67° C | 72% | 1024.4 hPa | 0 mm | - | 246 W/m² | - |
* Rain latest hour (hover to see other rain measurements)
** Current wind speed in m/s (hover to see current wind gust speed)